Flight Track Log - Related Links

Times and Time Zones

All times are in EDT time to prevent confusion due to time zone crossing. See the CHQ3072 flight status page for this flight to view local times or setup timezone preferences in your user account.

Time Position Orientation Groundspeed Altitude Reporting Facility
EDT Latitude Longitude Course Direction KTS MPH feet Rate Location/Type
Mon 10:32:38 AM 39.8667 -75.2833 218° Southwest 155 178 700  Level Philadelphia TRACON
Mon 10:33:14 AM 39.8500 -75.3000 218° Southwest 169 194 2,000 2,063 Climbing Philadelphia TRACON
Mon 10:34:14 AM 39.8167 -75.3667 237° Southwest 213 245 4,000 2,238 Climbing Philadelphia TRACON
Mon 10:35:00 AM 39.7833 -75.3678 270° West  Level FlightAware Approximate
Mon 10:35:20 AM 39.7667 -75.4333 226° Southwest 226 260 6,700  Level Philadelphia TRACON
Mon 10:36:00 AM 39.7667 -75.4166 218° Southwest  Level FlightAware Approximate
Mon 10:36:20 AM 39.7333 -75.5000 237° Southwest 245 282 8,700  Level Philadelphia TRACON
Mon 10:37:00 AM 39.7488 -75.4692 237° Southwest  Level FlightAware Approximate
Mon 10:37:14 AM 39.7000 -75.5833 243° Southwest 275 316 10,000  Level Philadelphia TRACON
Mon 10:38:00 AM 39.7195 -75.5138 218° Southwest  Level FlightAware Approximate
Mon 10:38:14 AM 39.6667 -75.6833 247° West 281 323 10,000  Level Philadelphia TRACON
Mon 10:39:08 AM 39.6667 -75.7667 270° West 277 319 10,000  Level Philadelphia TRACON
Mon 10:40:08 AM 39.6500 -75.8667 258° West 279 321 10,000  Level Philadelphia TRACON
Mon 10:41:39 AM 39.6333 -76.0167 262° West 283 326 10,000  Level Potomac TRACON
Mon 10:42:39 AM 39.6167 -76.1167 258° West 284 327 10,000 -650 Level Potomac TRACON
Mon 10:43:39 AM 39.6000 -76.2167 258° West 274 315 8,700 -1,500 Descending Potomac TRACON
Mon 10:44:39 AM 39.5833 -76.3000 255° West 259 298 7,000 -1,700 Descending Potomac TRACON
Mon 10:45:39 AM 39.5667 -76.3833 255° West 255 293 5,300 -950 Descending Potomac TRACON
Mon 10:46:39 AM 39.5500 -76.4667 255° West 232 267 5,100 -150 Descending Potomac TRACON
Mon 10:47:39 AM 39.5000 -76.5167 218° Southwest 251 289 5,000 -50 Descending Potomac TRACON
Mon 10:48:39 AM 39.4167 -76.5167 180° South 264 304 5,000 -400 Level Potomac TRACON
Mon 10:49:39 AM 39.3500 -76.4833 159° South 255 293 4,200 -450 Descending Potomac TRACON
Mon 10:50:39 AM 39.2833 -76.4667 169° South 246 283 4,100 -100 Descending Potomac TRACON
Mon 10:51:39 AM 39.2167 -76.4500 169° South 258 297 4,000 -50 Descending Potomac TRACON
Mon 10:52:39 AM 39.1500 -76.4167 159° South 241 277 4,000  Level Potomac TRACON
Mon 10:53:39 AM 39.1000 -76.4333 195° South 218 251 4,000  Level Potomac TRACON
Mon 10:54:39 AM 39.0500 -76.4833 218° Southwest 212 244 4,000  Level Potomac TRACON

Login

Don't have an account? Register now (free) for customized features, flight alerts, and more!